Regional Weather Roundup
Issued by NWS

Home | Current Version | Previous Version | Text Only | Print | Product List | Glossary On
Versions: 1 2 3 4 5 6 7 8 9 10 11 12 13 14 15 16 17 18 19 20 21 22 23 24 25 26 27 28 29 30 31 32 33 34 35 36 37 38 39 40 41 42 43 44 45 46 47 48 49 50
000
ASUS46 KSTO 310515
RWRCA

NORTHERN AND CENTRAL CA REGIONAL WEATHER ROUNDUP
NATIONAL WEATHER SERVICE SACRAMENTO CA
1000 PM PDT FRI JUL 30 2021

NOTE: FAIR INDICATES FEW OR NO CLOUDS BELOW 12,000 FEET WITH NO
SIGNIFICANT WEATHER AND/OR OBSTRUCTIONS TO VISIBILITY.

CAZ001-003-310600-
NORTHWEST AREA

CITY           SKY/WX    TMP DP  RH WIND       PRES   REMARKS
CRESCENT CITY  CLOUDY    53  52  96 S9        29.98R FOG
UKIAH          CLEAR     79  41  25 CALM      29.91R
$$

CAZ006-505>513-310600-
BAY AREA

CITY           SKY/WX    TMP DP  RH WIND       PRES   REMARKS
SANTA ROSA     PTCLDY    54  52  93 S8        29.97R
SAN RAFAEL     N/A       63  MM  MM MISG
NAPA           LGT RAIN  61  57  87 S15       29.95R
CONCORD        CLEAR     72  50  45 SW12      29.92R
OAKLAND CITY   N/A       61  MM  MM MISG
OAKLAND        MOCLDY    59  56  89 NW12      29.98R
SAN FRAN CITY  N/A       57  MM  94 MISG
SAN FRAN ARPT  PTCLDY    60  56  86 NW8       29.96R
LIVERMORE      PTCLDY    69  52  54 W12       29.94R
HAYWARD        CLEAR     60  55  83 NW10      29.97R
REDWOOD CITY   N/A       65  MM  76 MISG
MOFFETT ARPT   CLEAR     63  59  88 N8        29.97R
SAN JOSE ARPT  PTCLDY    64  56  75 NW6       29.97R
$$
CAZ034-037-514>518-310600-
CENTRAL COAST

CITY           SKY/WX    TMP DP  RH WIND       PRES   REMARKS
WATSONVILLE    MOCLDY    58  56  93 W5        30.02R
SALINAS        CLOUDY    60  57  89 NW9       30.01R
MONTEREY       CLOUDY    62  57  83 W8        30.01R
SAN LUIS OBISP CLOUDY    62  57  83 W7        30.01R
SANTA MARIA    CLOUDY    60  56  86 N5        30.02R
$$
CAZ015-016-310600-
NORTHERN SACRAMENTO VALLEY

CITY           SKY/WX    TMP DP  RH WIND       PRES   REMARKS
REDDING        PTCLDY    95  54  25 W5        29.82R HX  93
RED BLUFF      MOCLDY    92  62  36 SE5       29.83R HX  92
OROVILLE       MOCLDY    94  54  25 SE7       29.83R HX  92
$$
CAZ016>018-310600-
SOUTHERN SACRAMENTO VALLEY

CITY           SKY/WX    TMP DP  RH WIND       PRES   REMARKS
AUBURN         CLEAR     88  48  25 SE7       29.94R
BEALE AFB      MOCLDY    89  55  30 SE9       29.81R
LINCOLN        FAIR      90  50  25 S8        29.82R
MARYSVILLE     MOCLDY    88  56  33 SE12      29.81R
SAC INTL ARPT  MOCLDY    76  53  44 S12       29.82R
MATHER AIRPORT CLEAR     79  50  36 S8        29.85R
DOWNTOWN SAC   N/A       77  MM  MM MISG
SAC EXEC ARPT  MOCLDY    73  52  47 SW13G20   29.84R
VACAVILLE      PTCLDY    85  42  22 SE5       29.84R
TRAVIS AFB     PTCLDY    65  53  65 SW21G31   29.86R
$$
CAZ019>021-310600-
SAN JOAQUIN VALLEY

CITY           SKY/WX    TMP DP  RH WIND       PRES   REMARKS
STOCKTON       MOCLDY    81  46  29 W13       29.86R
MODESTO        MOCLDY    84  44  24 NW10      29.84R
MERCED         PTCLDY    88  55  32 NW7       29.85R
LEMOORE        MOCLDY    91  57  31 W7        29.85R
FRESNO         PTCLDY    96  54  24 NW13      29.84R HX  94
HANFORD        PTCLDY    95  64  35 NW12      29.84R HX  97
PORTERVILLE    PTCLDY    87  57  35 SE9       29.89R
BAKERSFIELD    PTCLDY    87  51  28 N8        29.88R
$$
CAZ011-012-071-310600-
NORTHERN MOUNTAINS

CITY           SKY/WX    TMP DP  RH WIND       PRES   REMARKS
YREKA          LGT RAIN  76  58  53 SW7       30.07S
MOUNT SHASTA   MOCLDY    77  50  38 CALM      30.10R
ALTURAS        CLOUDY    78  43  28 SE6       30.14R
$$
CAZ011-012-071-310600-
SIERRA NEVADA MTNS

CITY           SKY/WX    TMP DP  RH WIND       PRES   REMARKS
BLUE CANYON    MOCLDY    75  45  34 W3        30.24R
TRUCKEE        CLOUDY    64  50  59 CALM      30.29R
TAHOE VLY ARPT CLOUDY    64  53  67 CALM      30.30R
$$



USA.gov is the U.S. government's official web portal to all federal, state and local government web resources and services.